Location: Bouillancy
(49.1149°N, 2.9308°E)
Time: 08:25:01
(UTC+00:00)

CZ-2C R/B - Pass Details

Date: 30 September 2020
Orbit: 704 x 908 km, 98.1° (Epoch: 29 October)

Event Time Altitude Azimuth Distance (km) Brightness Sun altitude
Rises 17:58:08 0° 149° (SSE) 3,387 6.0 -5.7°
Reaches altitude 10° 18:00:29 10° 144° (SE) 2,484 5.3 -6.1°
Maximum altitude 18:05:53 54° 69° (ENE) 1,065 3.4 -7.0°
Drops below altitude 10° 18:11:31 10° 354° (N) 2,590 5.9 -7.9°
Sets 18:14:00 0° 350° (N) 3,544 6.6 -8.3°
